Location: Newark
(52.4787°S, 179.0532°W)
Time: 19:58:27
(UTC+00:00)

A-11 Canister half - Visible Passes

Search period start: 19 November 2019 00:00
Search period end: 29 November 2019 00:00
Orbit: 1514 x 1686 km, 47.2° (Epoch: 18 November)

Date Brightness Start Highest point End Pass type
(mag) Time Alt. Az. Time Alt. Az. Time Alt. Az.
25 Nov 10.4 14:48:35 10° N 14:55:26 23° NE 15:02:13 10° E visible
26 Nov 10.4 14:26:00 10° N 14:32:39 22° NE 14:39:12 10° E visible
27 Nov 10.4 14:03:27 10° N 14:09:52 21° NE 14:16:10 10° E visible
28 Nov 10.5 13:40:56 10° N 13:47:04 19° NE 13:53:07 10° E visible
